This is the latest recevied weather packets stored in our database for station/object NG7M. If no packets are shown the sender has not sent any weather packets the latest 10 day(s).
| Time | Temp. | Humidity | Pressure | Rain* | Wind** | Luminosity | Snow |
|---|---|---|---|---|---|---|---|
| 1777273503 | 5.56° C | 88% | 1009.9 hPa | 0 mm | - | - | - |
| 1777273204 | 5.56° C | 88% | 1009.5 hPa | 0 mm | - | - | - |
| 1777270804 | 5.56° C | 88% | 1009.4 hPa | 0 mm | - | - | - |
| 1777270505 | 5.56° C | 88% | 1009.4 hPa | 0 mm | - | - | - |
| 1777267803 | 5.56° C | 88% | 1008.8 hPa | 0 mm | - | - | - |
| 1777264804 | 6.11° C | 87% | 1008.7 hPa | 0 mm | - | - | - |
| 1777264204 | 6.11° C | 87% | 1008.7 hPa | 0 mm | - | - | - |
| 1777259104 | 7.22° C | 87% | 1007.6 hPa | 0 mm | - | - | - |
| 1777258804 | 7.22° C | 87% | 1007.5 hPa | 0 mm | - | - | - |
| 1777257903 | 7.78° C | 86% | 1007.5 hPa | 0 mm | - | - | - |
| 1777257303 | 7.78° C | 86% | 1007.2 hPa | 0 mm | - | - | - |
| 1777256404 | 7.78° C | 85% | 1007 hPa | 0 mm | - | - | - |
| 1777253703 | 8.33° C | 83% | 1006.5 hPa | 0 mm | - | - | - |
| 1777253404 | 8.33° C | 83% | 1006.4 hPa | 0 mm | - | - | - |
| 1777251904 | 8.89° C | 84% | 1006.4 hPa | 0 mm | - | - | - |
| 1777251603 | 8.33° C | 85% | 1006.4 hPa | 0 mm | - | - | - |
| 1777249503 | 8.33° C | 85% | 1005.8 hPa | 0 mm | - | - | - |
| 1777248903 | 8.33° C | 85% | 1005.8 hPa | 0.25 mm | - | - | - |
| 1777248304 | 8.33° C | 86% | 1005.7 hPa | 0.25 mm | - | - | - |
| 1777246804 | 8.33° C | 86% | 1005.3 hPa | 0.25 mm | - | - | - |
| 1777244704 | 7.78° C | 87% | 1004.5 hPa | 0.25 mm | - | - | - |
| 1777243503 | 7.78° C | 88% | 1004.5 hPa | 0.51 mm | - | - | - |
| 1777242604 | 8.33° C | 88% | 1004.1 hPa | 0.76 mm | - | - | - |
| 1777242004 | 8.33° C | 88% | 1004 hPa | 0.51 mm | - | - | - |
| 1777237503 | 8.33° C | 88% | 1003.2 hPa | 0.76 mm | - | - | - |
* Rain latest hour (hover to see other rain measurements)
** Current wind speed in m/s (hover to see current wind gust speed)